IK0AOC Weather Reports


time (UTC)temp
F
wind
direction
speed
knots
gust
knots
rain 1hr
in
rain 24hr
in
rain mn
in
humidity
%
barometer
mb
20260504003008 56 71 0.0 0.0 0.00 0.00 0.00 82 1018.8
20260504002005 57 70 0.0 7.0 0.00 0.00 0.00 82 1018.7
20260504001505 57 71 3.5 7.0 0.00 0.00 0.00 82 1018.7
20260504001006 57 69 0.9 7.0 0.00 0.00 0.00 82 1018.7
20260504000008 57 75 4.3 7.0 0.00 0.00 0.00 82 1018.9
20260503235505 58 76 5.2 7.8 0.00 0.00 0.00 82 1018.9
20260503235005 58 81 6.1 8.7 0.00 0.00 0.00 82 1019.0
20260503233008 57 89 3.5 6.1 0.00 0.00 0.00 84 1019.3
20260503232506 56 229 2.6 4.3 0.00 0.00 0.00 83 1019.3
20260503231505 56 238 1.7 2.6 0.00 0.00 0.00 83 1019.4
20260503230505 56 237 0.0 2.6 0.00 0.00 0.00 83 1019.4
20260503230008 57 238 0.9 2.6 0.00 0.00 0.00 82 1019.5
20260503225506 57 238 0.0 0.0 0.00 0.00 0.00 81 1019.5
20260503225005 58 235 0.0 2.6 0.00 0.00 0.00 81 1019.5
20260503224505 58 238 1.7 2.6 0.00 0.00 0.00 82 1019.6
20260503221505 58 238 0.9 1.7 0.00 0.00 0.00 79 1019.7
20260503220505 59 238 0.0 0.9 0.00 0.00 0.00 81 1019.6
20260503220008 58 238 0.0 0.0 0.00 0.00 0.00 81 1019.5
20260503214006 58 236 0.0 0.0 0.00 0.00 0.00 81 1019.4
20260503213505 58 238 0.0 0.0 0.00 0.00 0.00 82 1019.4
20260503213004 58 238 0.0 0.0 0.00 0.00 0.00 82 1019.4
20260503212505 58 238 0.0 1.7 0.00 0.00 0.00 81 1019.4
20260503212004 58 236 0.0 1.7 0.00 0.00 0.00 81 1019.4
20260503210504 59 238 0.0 0.0 0.00 0.00 0.00 79 1019.3
20260503205505 59 237 0.0 0.0 0.00 0.00 0.00 79 1019.3
20260503204505 59 237 0.0 0.0 0.00 0.00 0.00 79 1019.4
20260503203505 60 238 0.0 0.0 0.00 0.00 0.00 78 1019.4
20260503203005 60 238 0.0 0.0 0.00 0.00 0.00 78 1019.4
20260503202505 60 236 0.0 0.0 0.00 0.00 0.00 78 1019.4
20260503202004 60 237 0.0 0.0 0.00 0.00 0.00 78 1019.4
20260503201504 60 238 0.0 0.0 0.00 0.00 0.00 78 1019.4
20260503201005 60 238 0.0 0.0 0.00 0.00 0.00 78 1019.4
20260503200504 60 237 0.0 0.0 0.00 0.00 0.00 78 1019.3
20260503193504 60 238 0.0 0.0 0.00 0.00 0.00 76 1018.9
20260503192505 61 243 0.0 0.0 0.00 0.00 0.00 75 1018.9
20260503192004 62 244 0.0 0.9 0.00 0.00 0.00 75 1018.9
20260503191006 62 242 0.0 0.0 0.00 0.00 0.00 74 1018.8
20260503190504 62 242 0.0 2.6 0.00 0.00 0.00 74 1018.7
20260503190008 62 244 1.7 4.3 0.00 0.00 0.00 71 1018.6
20260503184504 63 267 0.0 1.7 0.00 0.00 0.00 71 1018.5
20260503183504 63 268 0.0 0.0 0.00 0.00 0.00 71 1018.5
20260503182505 63 269 0.0 0.0 0.00 0.00 0.00 71 1018.5
20260503182005 63 261 2.6 12.2 0.00 0.00 0.00 71 1018.5
20260503174504 64 260 5.2 19.1 0.00 0.00 0.00 67 1018.4
20260503172505 65 274 20.0 37.4 0.00 0.00 0.00 64 1017.9
20260503172004 66 268 12.2 31.3 0.00 0.00 0.00 62 1017.9
20260503170503 66 268 11.3 31.3 0.00 0.00 0.00 59 1017.9
20260503081005 66 321 5.2 11.3 0.00 0.00 0.00 57 1020.8
20260503071504 64 340 5.2 10.4 0.00 0.00 0.00 63 1021.1
20260503054005 56 45 2.6 5.2 0.00 0.00 0.00 72 1020.9
20260503053008 55 26 0.0 5.2 0.00 0.00 0.00 73 1020.8
20260503052506 55 28 1.7 10.4 0.00 0.00 0.00 74 1020.8
20260503051505 54 25 7.8 10.4 0.00 0.00 0.00 75 1020.8
20260503051006 54 34 7.8 10.4 0.00 0.00 0.00 77 1020.7
20260503050505 54 26 2.6 10.4 0.00 0.00 0.00 77 1020.6
20260503050008 54 35 6.1 10.4 0.00 0.00 0.00 78 1020.6
20260503045005 53 37 5.2 10.4 0.00 0.00 0.00 79 1020.6
20260503044505 53 44 6.1 8.7 0.00 0.00 0.00 79 1020.5
20260503043008 53 57 5.2 10.4 0.00 0.00 0.00 80 1020.5
20260503042505 54 51 6.1 8.7 0.00 0.00 0.00 79 1020.5
20260503041006 53 64 5.2 7.0 0.00 0.00 0.00 82 1020.5
20260503040505 53 41 4.3 5.2 0.00 0.00 0.00 82 1020.5
20260503035506 53 41 0.0 0.0 0.00 0.00 0.00 82 1020.5
20260503034504 53 41 0.0 0.0 0.00 0.00 0.00 83 1020.5
20260503033505 53 41 4.3 7.8 0.00 0.00 0.00 82 1020.4
20260503032005 53 154 0.0 0.0 0.00 0.00 0.00 82 1020.5
20260503030504 53 153 0.0 0.0 0.00 0.00 0.00 82 1020.5
20260503025005 53 153 0.0 0.0 0.00 0.00 0.00 81 1020.5
20260503023505 54 154 2.6 5.2 0.00 0.00 0.00 80 1020.4
20260503023007 54 154 2.6 5.2 0.00 0.00 0.00 81 1020.5
20260503020007 53 165 4.3 6.1 0.00 0.00 0.00 82 1020.5
20260503015505 53 164 2.6 5.2 0.00 0.00 0.00 81 1020.5
20260503014505 54 192 0.0 0.0 0.00 0.00 0.00 82 1020.5
20260503014005 54 192 0.0 0.0 0.00 0.00 0.00 82 1020.5
20260503013505 54 188 2.6 7.0 0.00 0.00 0.00 77 1020.7
20260503010504 56 129 2.6 4.3 0.00 0.00 0.00 79 1020.8
20260503004005 55 127 1.7 7.0 0.00 0.00 0.00 79 1020.9